Regional Weather Roundup
Issued by NWS Charleston, SC

Current Version | Previous Version | Text Only | Print | Product List | Glossary Off
Versions: 1 2 3 4 5 6 7 8 9 10 11 12 13 14 15 16 17 18 19 20 21 22 23 24 25 26 27 28 29 30 31 32 33 34 35 36 37 38 39 40 41 42 43 44 45 46 47 48 49 50

000
ASUS42 KCHS 301410
RWRCHS
REGIONAL WEATHER ROUNDUP
NATIONAL WEATHER SERVICE CHARLESTON SC
1000 AM EDT WED JUL 30 2014

NOTE: "FAIR" INDICATES FEW OR NO CLOUDS BELOW 12,000 FEET WITH NO
SIGNIFICANT WEATHER AND/OR OBSTRUCTIONS TO VISIBILITY.

NOT ALL STATIONS ARE QUALITY CONTROLLED BY THE NATIONAL
WEATHER SERVICE. USE DATA WITH CAUTION...ESPECIALLY
DEWPOINT OBSERVATIONS.

SCZ027-030-031-034>040-042>050-301500-
...SOUTH CAROLINA...

CITY           SKY/WX    TMP DP  RH WIND       PRES   REMARKS
N CHARLESTON   PTSUNNY   84  72  67 E7        30.00R
WATERFRONT PRK   N/A     84 N/A N/A E14         N/A
FORT JOHNSON   NOT AVBL
MOUNT PLEASANT FAIR      82  73  74 CALM      30.00S
JOHNS ISLAND   PTSUNNY   81  70  69 CALM      30.00S
PINOPOLIS        N/A     82  72  69 E6        29.93R
MONCKS CORNER    N/A     82  75  78 E7        30.01R
SUMMERVILLE    FAIR      81  73  78 CALM      30.01S
BEAUFORT MCAS  MOSUNNY   83  70  64 SE7       29.99S
BEAUFORT ARPT  FAIR      82  72  69 E6        29.99S
HILTON HEAD IS MOSUNNY   82  72  69 CALM      30.00R
GEORGETOWN     NOT AVBL
WALTERBORO     SUNNY     82  70  65 E6        30.01S
ORANGEBURG     SUNNY     78  64  61 NE7       30.02S
BARNWELL       FAIR      79  64  61 E6        30.02R
AIKEN          FAIR      77  64  65 NE8       30.06S
MANNING        FAIR      81  73  78 NE3       30.02S
KINGSTREE      NOT AVBL
COLUMBIA       MOSUNNY   80  60  50 N6        30.03S
SUMTER         MOSUNNY   75  66  73 NE8       30.02S
FLORENCE       SUNNY     77  67  71 VRB6      30.04R
MYRTLE BEACH   MOSUNNY   82  68  61 NE7       30.02R
N MYRTLE BEACH SUNNY     82  69  64 E9        30.02R

$$

GAZ063-065-086>088-099>101-113>116-118-119-134-136>141-150-301500-
...GEORGIA...

CITY           SKY/WX    TMP DP  RH WIND       PRES   REMARKS
SAVANNAH ARPT  CLOUDY    83  70  64 E6        29.99S
HUNTER AAF     CLOUDY    83  70  64 E9        29.97S
FORT STEWART   PTSUNNY   77  65  67 N2        29.98S
STATESBORO     NOT AVBL
SYLVANIA       MOSUNNY   78  72  82 CALM      30.01S
CLAXTON        CLOUDY    79  70  73 CALM      30.00S
THOMSON        MOSUNNY   77  66  68 NE7       30.07F
AUGUSTA-BUSH   SUNNY     77  61  57 N6        30.01S
AUGUSTA-DANIEL SUNNY     79  59  50 NE8       30.03S
SWAINSBORO     FAIR      79  68  69 CALM      30.02S
VIDALIA          N/A     77  64  65 N3        30.02R
ALMA           PTSUNNY   79  62  56 CALM      30.00S
WAYCROSS       SUNNY     84  67  57 CALM      30.00S
JESUP          FAIR      81  66  61 E3        30.00R
BRUNSWICK      SUNNY     81  68  65 N5        29.98F
SAINT SIMONS   SUNNY     83  69  62 N5        29.97S

$$

SCZ027-028-034-036>038-045-046-048>050-GAZ119-141-301500-
...LAKE AND SUPPLEMENTAL COASTAL OBSERVATIONS...

STATION/POSITION TIME  TEMP    WIND        PRES    WAVE   SWELL
                       AIR SEA DIR/SP/G            HT/PER HT/PER/DIR
                 (UTC) (F)     (DEG/KT/KT) (MB)    (FT/S) (FT/S/D)
UPR LAKE MARION  NOT AVBL
WINYAH BAY       1300   81      90/  7     1016.0R
LAKE MURRAY      1300   74      10/  1/  4 1016.6R
ACE BASIN NERRS  1300   75     170/  2     1016.0S
FORT PULASKI     1400   82     110/  5/  7 1015.5R
SAPELO ISLAND    1300   81      20/  7     1015.0S

$$

ANZ835-935-AMZ111-154-330-350-352-354-374-450-454-472-301500-
...C-MAN AND BUOY OBSERVATIONS...

STATION/POSITION TIME  TEMP    WIND        PRES    WAVE   SWELL
                       AIR SEA DIR/SP/G            HT/PER HT/PER/DIR
                 (UTC) (F)     (DEG/KT/KT) (MB)    (FT/S) (FT/S/D)
FOLLY BEACH CMAN 1300   82      90/ 10/ 11 1015.9R
BUOY 41004       1400   81 84   80/ 10/ 14 1015.1R   2/ 8   2/ 8
BUOY 41008       1400   83 85   80/  8/ 10 1014.8R   2/ 8   2/130/ 8
5E ST. MARYS GA  1400      85                N/A     2/ 9
FRYING PAN BUOY  NOT AVBL
BUOY 41025       1400          VRB 14/ 17  1017.1R   4/ 8   2/110/ 8
CAPE LOOKOUT NC  1300   77      50/ 13/ 15 1016.9R
BUOY 41002       1305   77 80   50/  2/  4 1015.5R   5/ 7   5/200/ 7
BUOY 41010       1400   83 84  220/  4/  6 1015.1R   3/ 8   2/120/ 8
BUOY 41012       NOT AVBL
ST AUGUSTINE FL  1400   83     330/  3/  3 1015.6R
CAPERS NEARSHORE 1300   83      70/  8/ 10   N/A
FRIPP NEARSHORE  NOT AVBL


$$


USA.gov is the U.S. government's official web portal to all federal, state and local government web resources and services.